Exeter, United Kingdom

8:55 AM BST on May 28, 2017 (GMT +0100)
Exeter

Weather History for EGTE - December, 2012

Change the Weather History Date:

Sunday, December 30, 2012

  Actual Average Record
Temperature  
Mean Temperature 46 °F -  
Max Temperature 52 °F 46 °F 59 °F (2006)
Min Temperature 41 °F 36 °F 20 °F (2014)
Degree Days  
Heating Degree Days 18    
Moisture  
Dew Point 43 °F    
Average Humidity 79    
Maximum Humidity 90    
Minimum Humidity 68    
Precipitation  
Precipitation 0.04 in - - ()
Sea Level Pressure  
Sea Level Pressure 29.91 in    
Wind  
Wind Speed 13 mph ()    
Max Wind Speed 18 mph    
Max Gust Speed 33 mph    
Visibility 6.2 miles    
Events Rain    
Averages and records for this station are not official NWS values.
T = Trace of Precipitation, MM = Missing Value Source: Averaged Metar Reports

Daily Weather History Graph

Daily Weather History Graph

Search for Another Location

Airport or City:

Trip Planner

Search our weather history database for the weather conditions in past years. The results will help you decide how hot, cold, wet, or windy it might be!

Date:

Astronomy

Dec. 30, 2012 Rise Set
Actual Time 8:15 AM GMT 4:17 PM GMT
Civil Twilight 7:36 AM GMT 4:56 PM GMT
Nautical Twilight 6:54 AM GMT 5:38 PM GMT
Astronomical Twilight 6:14 AM GMT 6:18 PM GMT
Moon 6:50 PM GMT (12/30) 9:01 AM GMT (12/30)
Length of Visible Light 9h 19m
Length of Day
8h 01m
Waning Gibbous, 96% of the Moon is Illuminated
Dec 30
Waning Gibbous
Jan 5
Last Quarter
Jan 11
New
Jan 18
First Quarter
Jan 27
Full

Hourly Weather History & Observations

Time (GMT) Temp. Windchill Dew Point Humidity Pressure Visibility Wind Dir Wind Speed Gust Speed Precip Events Conditions
2:50 AM 43 °F - 37 °F 74%  in - WSW 17.3 mph - -  
5:50 AM 41 °F - 39 °F 90%  in - WSW 10.4 mph - -  
7:50 AM 42.8 °F 36.6 °F 39.2 °F 87% 29.86 in 6.2 mi SW 11.5 mph - N/A Rain Light Rain Showers
8:20 AM 42.8 °F 37.0 °F 37.4 °F 81% 29.86 in 6.2 mi WSW 10.4 mph - N/A   Partly Cloudy
8:50 AM 44 °F - 40 °F 81%  in - WSW 12.7 mph - -  
8:50 AM 42.8 °F 36.2 °F 39.2 °F 87% 29.86 in 6.2 mi SW 12.7 mph - N/A   Scattered Clouds
9:20 AM 44.6 °F 38.4 °F 41.0 °F 87% 29.86 in 6.2 mi SW 12.7 mph - N/A   Scattered Clouds
9:50 AM 46.4 °F 41.1 °F 41.0 °F 81% 29.89 in 6.2 mi WSW 11.5 mph - N/A   Scattered Clouds
10:20 AM 48.2 °F - 41.0 °F 76% 29.89 in 6.2 mi SW 13.8 mph - N/A   Scattered Clouds
10:50 AM 48.2 °F - 41.0 °F 76% 29.92 in 6.2 mi WSW 12.7 mph - N/A   Scattered Clouds
11:20 AM 48.2 °F - 42.8 °F 82% 29.92 in 6.2 mi WSW 17.3 mph 33.4 mph N/A Rain Light Rain Showers
11:50 AM 49 °F - 44 °F 76%  in - West 12.7 mph - -  
11:50 AM 48.2 °F - 42.8 °F 82% 29.92 in 6.2 mi WSW 13.8 mph - N/A   Partly Cloudy
12:20 PM 50.0 °F - 42.8 °F 76% 29.92 in 6.2 mi WSW 17.3 mph - N/A   Scattered Clouds
12:50 PM 50.0 °F - 42.8 °F 76% 29.92 in 6.2 mi WSW 17.3 mph - N/A Rain Light Rain Showers
1:20 PM 48.2 °F - 44.6 °F 87% 29.92 in 6.2 mi SW 13.8 mph - N/A   Scattered Clouds
1:50 PM 50.0 °F - 42.8 °F 76% 29.92 in 6.2 mi WSW 13.8 mph - N/A   Scattered Clouds
2:20 PM 51.8 °F - 42.8 °F 71% 29.92 in 6.2 mi WSW 13.8 mph - N/A   Scattered Clouds
2:50 PM 51 °F - 44 °F 68%  in - WSW 13.8 mph - -  
2:50 PM 50.0 °F - 42.8 °F 76% 29.95 in 6.2 mi SW 12.7 mph - N/A   Scattered Clouds
3:20 PM 51.8 °F - 42.8 °F 71% 29.95 in 6.2 mi SW 15.0 mph - N/A   Scattered Clouds
3:50 PM 50.0 °F - 42.8 °F 76% 29.95 in 6.2 mi WSW 15.0 mph - N/A   Scattered Clouds
4:20 PM 50.0 °F - 42.8 °F 76% 29.95 in 6.2 mi WSW 12.7 mph - N/A   Scattered Clouds
4:50 PM 50.0 °F - 42.8 °F 76% 29.95 in 6.2 mi SW 9.2 mph - N/A   Scattered Clouds
5:20 PM 50.0 °F - 44.6 °F 82% 29.95 in 6.2 mi SSW 11.5 mph - N/A   Scattered Clouds
5:50 PM 51 °F - 45 °F 74%  in - SW 12.7 mph - -  
5:50 PM 50.0 °F - 44.6 °F 82% 29.95 in 6.2 mi SW 13.8 mph - N/A   Scattered Clouds
6:20 PM 51.8 °F - 44.6 °F 76% 29.92 in 6.2 mi SW 15.0 mph - N/A   Scattered Clouds
6:50 PM 51.8 °F - 44.6 °F 76% 29.92 in 6.2 mi SW 18.4 mph - N/A   Scattered Clouds
7:20 PM 51.8 °F - 46.4 °F 82% 29.95 in 6.2 mi SW 17.3 mph - N/A   Scattered Clouds
8:20 PM 51.8 °F - 46.4 °F 82% 29.92 in 6.2 mi SW 17.3 mph - N/A   Scattered Clouds
8:50 PM 52 °F - 48 °F 80%  in - WSW 16.1 mph - -  
8:50 PM 51.8 °F - 46.4 °F 82% 29.92 in 6.2 mi SW 18.4 mph - N/A   Scattered Clouds
9:20 PM 51.8 °F - 46.4 °F 82% 29.92 in 6.2 mi SW 17.3 mph - N/A   Scattered Clouds
10:50 PM 51.8 °F - 46.4 °F 82% 29.89 in 6.2 mi SW 18.4 mph - N/A   Scattered Clouds
11:20 PM 51.8 °F - 46.4 °F 82% 29.89 in 6.2 mi SW 18.4 mph - N/A   Scattered Clouds
11:50 PM 52 °F - 47 °F 79%  in - SW 15.0 mph - -  
11:50 PM 51.8 °F - 46.4 °F 82% 29.89 in 6.2 mi SSW 15.0 mph - N/A   Scattered Clouds